GLFSW EGGD-EGGD

Flight info

Callsign GLFSW
Flight time 0h 33m
Altitude 4000
Route VFR AROUND THE AREA WITH CIRCUITS
Aircraft DA40/L-SBDGRY/S

Departure

Time 2026-04-30 19:45
Airport Bristol Airport (EGGD)

Arrival

Time 2026-04-30 20:18
Airport Bristol Airport (EGGD)
Time Latitude Longitude Altitude Speed Heading
2026-04-30 19:40 51.37947 -2.70938 606 ft 0 kts 204°
2026-04-30 19:40 51.37943 -2.70942 606 ft 4 kts 219°
2026-04-30 19:40 51.37958 -2.70990 614 ft 0 kts 342°
2026-04-30 19:41 51.37958 -2.70991 614 ft 3 kts 343°
2026-04-30 19:42 51.38021 -2.70981 617 ft 11 kts 28°
2026-04-30 19:42 51.38084 -2.70929 606 ft 5 kts 341°
2026-04-30 19:42 51.38092 -2.71067 607 ft 18 kts 285°
2026-04-30 19:42 51.38136 -2.71189 609 ft 7 kts 275°
2026-04-30 19:43 51.38131 -2.71265 608 ft 0 kts 278°
2026-04-30 19:43 51.38178 -2.71297 608 ft 17 kts 326°
2026-04-30 19:43 51.38282 -2.71413 611 ft 15 kts 289°
2026-04-30 19:44 51.38256 -2.71860 613 ft 13 kts 21°
2026-04-30 19:44 51.38275 -2.71582 613 ft 50 kts 78°
2026-04-30 19:44 51.38328 -2.70786 629 ft 87 kts 81°
2026-04-30 19:44 51.38469 -2.69844 844 ft 87 kts 87°
2026-04-30 19:45 51.38457 -2.68847 991 ft 94 kts 101°
2026-04-30 19:45 51.38343 -2.67856 1281 ft 85 kts 112°
2026-04-30 19:45 51.37819 -2.67432 1350 ft 108 kts 192°
2026-04-30 19:45 51.37540 -2.68653 1464 ft 133 kts 260°
2026-04-30 19:46 51.37476 -2.70159 1620 ft 139 kts 261°
2026-04-30 19:46 51.37460 -2.71735 1873 ft 134 kts 261°
2026-04-30 19:46 51.37457 -2.73208 2147 ft 133 kts 253°
2026-04-30 19:46 51.37163 -2.74528 2344 ft 122 kts 225°
2026-04-30 19:47 51.36646 -2.75647 2404 ft 128 kts 219°
2026-04-30 19:47 51.36245 -2.76322 2544 ft 122 kts 211°
2026-04-30 19:47 51.35376 -2.77479 2730 ft 125 kts 210°
2026-04-30 19:47 51.34752 -2.78396 2914 ft 122 kts 212°
2026-04-30 19:48 51.34144 -2.79377 3019 ft 127 kts 219°
2026-04-30 19:48 51.33679 -2.80552 3290 ft 126 kts 236°
2026-04-30 19:48 51.33427 -2.81920 3443 ft 132 kts 250°
2026-04-30 19:48 51.33370 -2.83417 3584 ft 136 kts 264°
2026-04-30 19:49 51.33476 -2.84936 3741 ft 139 kts 274°
2026-04-30 19:49 51.33941 -2.87962 3978 ft 146 kts 282°
2026-04-30 19:49 51.34079 -2.89500 4009 ft 137 kts 237°
2026-04-30 19:50 51.33340 -2.89961 4068 ft 122 kts 156°
2026-04-30 19:50 51.33094 -2.88692 4023 ft 139 kts 76°
2026-04-30 19:50 51.33596 -2.87406 4130 ft 131 kts 73°
2026-04-30 19:50 51.33866 -2.86049 4243 ft 122 kts 86°
2026-04-30 19:51 51.34110 -2.84763 4341 ft 126 kts 73°
2026-04-30 19:51 51.34476 -2.83443 4379 ft 128 kts 72°
2026-04-30 19:51 51.34827 -2.82176 4507 ft 121 kts 86°
2026-04-30 19:51 51.34462 -2.81128 4312 ft 117 kts 161°
2026-04-30 19:52 51.33796 -2.81684 3893 ft 132 kts 242°
2026-04-30 19:52 51.33869 -2.83169 3555 ft 141 kts 289°
2026-04-30 19:52 51.34553 -2.84305 3175 ft 147 kts 329°
2026-04-30 19:52 51.35506 -2.84808 2838 ft 142 kts
2026-04-30 19:53 51.36439 -2.84731 2576 ft 129 kts 25°
2026-04-30 19:53 51.37157 -2.84118 2317 ft 113 kts 52°
2026-04-30 19:53 51.37644 -2.83210 1981 ft 104 kts 75°
2026-04-30 19:53 51.37938 -2.82202 1706 ft 92 kts 92°
2026-04-30 19:54 51.37916 -2.81173 1522 ft 98 kts 105°
2026-04-30 19:54 51.37892 -2.80111 1464 ft 96 kts 88°
2026-04-30 19:54 51.38052 -2.79026 1263 ft 104 kts 87°
2026-04-30 19:54 51.38049 -2.77834 1193 ft 103 kts 93°
2026-04-30 19:55 51.38096 -2.76729 921 ft 99 kts 88°
2026-04-30 19:55 51.38135 -2.75657 863 ft 97 kts 91°
2026-04-30 19:55 51.38165 -2.74619 811 ft 86 kts 92°
2026-04-30 19:55 51.38202 -2.73731 678 ft 74 kts 92°
2026-04-30 19:56 51.38218 -2.72892 613 ft 78 kts 87°
2026-04-30 19:56 51.38276 -2.72283 721 ft 76 kts 76°
2026-04-30 19:56 51.38364 -2.71505 854 ft 72 kts 92°
2026-04-30 19:56 51.38355 -2.70733 975 ft 68 kts 98°
2026-04-30 19:57 51.38295 -2.69968 1074 ft 67 kts 101°
2026-04-30 19:57 51.38264 -2.69221 1172 ft 70 kts 99°
2026-04-30 19:57 51.38181 -2.68473 1296 ft 66 kts 109°
2026-04-30 19:57 51.38097 -2.67711 1311 ft 75 kts 103°
2026-04-30 19:58 51.37970 -2.66879 1416 ft 68 kts 121°
2026-04-30 19:58 51.37524 -2.66634 1406 ft 82 kts 174°
2026-04-30 19:58 51.36869 -2.66819 1514 ft 100 kts 185°
2026-04-30 19:58 51.36291 -2.67353 1886 ft 111 kts 220°
2026-04-30 19:59 51.36100 -2.68657 2046 ft 139 kts 276°
2026-04-30 19:59 51.36420 -2.70146 2245 ft 143 kts 280°
2026-04-30 19:59 51.36727 -2.73260 2636 ft 140 kts 269°
2026-04-30 20:00 51.36889 -2.74788 2775 ft 143 kts 273°
2026-04-30 20:00 51.37044 -2.76355 2928 ft 140 kts 268°
2026-04-30 20:00 51.37116 -2.77900 3152 ft 139 kts 266°
2026-04-30 20:00 51.37162 -2.79427 3356 ft 140 kts 266°
2026-04-30 20:01 51.37249 -2.82607 3487 ft 142 kts 259°
2026-04-30 20:01 51.37166 -2.84214 3465 ft 149 kts 256°
2026-04-30 20:01 51.36988 -2.85853 3459 ft 146 kts 246°
2026-04-30 20:02 51.36259 -2.88637 3801 ft 123 kts 231°
2026-04-30 20:02 51.35874 -2.89893 3932 ft 128 kts 239°
2026-04-30 20:03 51.35493 -2.92708 4065 ft 152 kts 283°
2026-04-30 20:03 51.36224 -2.93882 4193 ft 154 kts 341°
2026-04-30 20:03 51.37266 -2.93681 4100 ft 155 kts 43°
2026-04-30 20:03 51.37505 -2.92257 4025 ft 139 kts 106°
2026-04-30 20:04 51.37536 -2.90713 4060 ft 137 kts 92°
2026-04-30 20:04 51.37605 -2.89196 3687 ft 133 kts 94°
2026-04-30 20:04 51.37663 -2.87721 3185 ft 128 kts 94°
2026-04-30 20:05 51.37757 -2.85100 2421 ft 112 kts 95°
2026-04-30 20:05 51.37828 -2.83926 2154 ft 101 kts 95°
2026-04-30 20:05 51.37935 -2.81782 1624 ft 91 kts 101°
2026-04-30 20:06 51.37912 -2.80745 1526 ft 97 kts 96°
2026-04-30 20:06 51.37991 -2.79640 1526 ft 104 kts 91°
2026-04-30 20:06 51.38053 -2.78435 1476 ft 112 kts 93°
2026-04-30 20:06 51.38049 -2.77177 1368 ft 107 kts 94°
2026-04-30 20:07 51.38113 -2.76122 1143 ft 91 kts 91°
2026-04-30 20:07 51.38128 -2.75115 867 ft 90 kts 91°
2026-04-30 20:07 51.38210 -2.73323 631 ft 76 kts 92°
2026-04-30 20:08 51.38241 -2.72521 616 ft 78 kts 83°
2026-04-30 20:08 51.38304 -2.71739 763 ft 71 kts 95°
2026-04-30 20:08 51.38290 -2.70933 872 ft 69 kts 95°
2026-04-30 20:08 51.38281 -2.70186 1004 ft 67 kts 99°
2026-04-30 20:09 51.38321 -2.69453 1140 ft 72 kts 70°
2026-04-30 20:09 51.38761 -2.68810 1269 ft 95 kts 35°
2026-04-30 20:09 51.40292 -2.69061 1695 ft 122 kts
2026-04-30 20:10 51.41962 -2.69801 2183 ft 132 kts 323°
2026-04-30 20:10 51.42295 -2.71245 2187 ft 144 kts 274°
2026-04-30 20:10 51.42418 -2.72824 2319 ft 143 kts 265°
2026-04-30 20:11 51.42564 -2.75888 2764 ft 137 kts 267°
2026-04-30 20:11 51.42625 -2.77365 3045 ft 129 kts 268°
2026-04-30 20:11 51.42721 -2.78770 3302 ft 126 kts 265°
2026-04-30 20:12 51.42918 -2.81618 3672 ft 129 kts 267°
2026-04-30 20:12 51.42930 -2.83079 3777 ft 134 kts 259°
2026-04-30 20:12 51.42868 -2.84588 3843 ft 138 kts 250°
2026-04-30 20:13 51.42535 -2.85962 4057 ft 125 kts 236°
2026-04-30 20:13 51.42156 -2.87178 4260 ft 122 kts 234°
2026-04-30 20:13 51.41824 -2.88435 4397 ft 128 kts 245°
2026-04-30 20:13 51.41569 -2.89799 4548 ft 127 kts 242°
2026-04-30 20:14 51.41155 -2.91032 4681 ft 124 kts 227°
2026-04-30 20:14 51.40637 -2.92157 4782 ft 127 kts 229°
2026-04-30 20:14 51.40129 -2.93317 4871 ft 128 kts 222°
2026-04-30 20:14 51.39364 -2.93787 4647 ft 111 kts 178°
2026-04-30 20:15 51.38656 -2.93632 4367 ft 97 kts 163°
2026-04-30 20:15 51.38063 -2.93086 3906 ft 104 kts 138°
2026-04-30 20:15 51.37683 -2.92081 3513 ft 104 kts 118°
2026-04-30 20:15 51.37474 -2.90986 3155 ft 101 kts 117°
2026-04-30 20:16 51.37212 -2.90031 2911 ft 95 kts 96°
2026-04-30 20:16 51.37461 -2.89056 2736 ft 89 kts 82°
2026-04-30 20:16 51.37636 -2.88158 2480 ft 81 kts 91°
2026-04-30 20:16 51.37724 -2.87299 2222 ft 76 kts 96°
2026-04-30 20:17 51.37770 -2.86498 2045 ft 68 kts 100°
2026-04-30 20:17 51.37795 -2.85753 1609 ft 83 kts 98°
2026-04-30 20:17 51.37780 -2.84708 1246 ft 85 kts 95°
2026-04-30 20:17 51.37763 -2.83774 954 ft 84 kts 90°
2026-04-30 20:18 51.37833 -2.82956 882 ft 58 kts 88°
2026-04-30 20:18 51.37837 -2.82271 477 ft 72 kts 103°
2026-04-30 20:18 51.38067 -2.82026 64 ft 0 kts 299°